Погода в Норильске

Россия / Красноярский край     69°20′38″N   88°12′37″E
темп.,
°C
ветер,
м/с
пор.,
м/с
влажн.,
%
обл.,
%
осадки,
мм/ч
давл.,
гПа
погр.,
м
24 июня, чт
чт2401:00+7ссз227710 0.0 101760
04:00+7сз117889 0.0 101665
07:00+9ссз217082 0.0 1015206
10:00+12сз116181 0.0 1013441
13:00+14сз2254100 0.0 1012753
16:00+16сз335290 0.0 1011900
19:00+16сз4352100 0.0 1010797
22:00+14сз3559100 0.0 1009487
25 июня, пт
пт2501:00+11зсз2268100 0.0 100928
04:00+10сз2668100 0.0 1008283
07:00+10ссз5865100 0.0 1007485
10:00+11ссз71057100 0.0 1006729
13:00+12ссз111239100 0.0 1005969
16:00+12с121338100 0.0 10051141
19:00+11с111345100 0.0 10041220
22:00+9с91454100 0.0 1004962
26 июня, сб
сб2601:00+6ссз81461100 0.0 1004737
04:00+5с81464100 0.0 1003790
07:00+6с91362100 0.0 1004828
10:00+7ссв121556100 0.0 10051066
13:00+9ссв13155085 0.0 10051323
16:00+11ссв13164580 0.0 10061506
19:00+11ссв12164770 0.0 10061570
22:00+9ссв11155250 0.0 10061224
27 июня, вс
вс2701:00+8с8125661 0.0 1006564
04:00+7с6106075 0.0 1005434
07:00+9ссв4554100 0.0 1005657
10:00+12св5648100 0.0 1005966
13:00+14всв5644100 0.0 10041407
16:00+13всв4450100 0.0 10051337
19:00+13с2249100 0.0 10061345
22:00+12з0154100 0.0 1006194
28 июня, пн
пн2801:00+10зюз116873 0.0 100737
04:00+9в117077 0.0 100794
07:00+10юв016569 0.0 1007459
10:00+12юз236096 0.0 10071059
13:00+12юз345689 0.1 10071282
16:00+11сз556296 0.1 1008781
19:00+12сз455739 0.1 10081014
22:00+11св1059100 0.0 1007279